{"data":{"norad_id":62201,"intl_designator":"2024-229K","name":"STARLINK-32667","alt_names":[],"object_type":"PAYLOAD","status":"ACTIVE","operator":null,"country":"US","launch_date":"2024-12-04","launch_site_code":"AFETR","launch_vehicle":null,"mission":null,"orbit_class":"UNKNOWN","rcs_meters":null,"size_class":null,"mass_kg":null,"dimensions":null,"purposes":["comms"],"wikipedia_slug":null,"has_3d_model":false,"image_url":null,"decayed_at":null,"tle_current":{"epoch":"2026-05-25T04:16:14.473920Z","epoch_age_seconds":66484,"freshness":"FRESH","line1":"1 62201U 24229K   26145.17794530  .00029509  00000+0  10772-2 0  9997","line2":"2 62201  42.9997 198.3732 0001318 264.2392  95.8310 15.27591121 82265","mean_motion":15.27591121,"eccentricity":0.0001318,"inclination_deg":42.9997,"raan_deg":198.3732,"arg_perigee_deg":264.2392,"mean_anomaly_deg":95.831,"bstar":0.0010772,"rev_number":8226,"period_min":94.266062443289,"perigee_km":482.11149602841,"apogee_km":483.92009590543,"semimajor_km":6861.1527959669,"source":"CELESTRAK","updated_at":"2026-05-25T13:38:19.607719Z"}}}